Date,TemperatureHighF,TemperatureAvgF,TemperatureLowF,DewpointHighF,DewpointAvgF,DewpointLowF,HumidityHigh,HumidityAvg,HumidityLow,PressureMaxIn,PressureMinIn,WindSpeedMaxMPH,WindSpeedAvgMPH,GustSpeedMaxMPH,PrecipitationSumIn
2014-10-18,79.3,62.2,57.2,45.9,41.5,41.3,66,44,26,29.97,29.88,9,4,0,0.00
2014-10-19,72.0,59.9,51.4,48.5,45.8,41.0,82,61,43,29.98,29.90,11,4,0,0.00
2014-10-20,58.6,50.2,46.9,53.4,43.1,39.8,87,76,65,29.95,29.90,6,1,0,0.10
2014-10-21,76.1,60.2,49.5,50.6,48.1,45.3,91,68,37,29.94,29.80,8,3,0,0.00
2014-10-22,78.3,63.0,51.1,51.5,46.1,39.5,90,58,29,29.99,29.88,11,2,0,0.00
2014-10-23,81.0,61.6,45.9,47.5,39.7,32.9,84,49,23,30.07,29.94,9,3,0,0.00
2014-10-24,86.0,63.0,42.6,41.2,35.5,31.5,68,39,19,30.11,29.95,7,2,0,0.00
2014-10-25,60.4,60.4,60.4,32.7,32.7,32.7,35,35,35,30.01,29.99,0,0,0,0.00
2014-10-26,80.6,70.6,60.4,47.1,39.3,32.7,45,32,28,29.99,29.72,22,5,0,0.00
2014-10-27,79.2,68.5,51.3,43.2,36.3,25.2,56,32,18,29.86,29.66,14,6,0,0.00
2014-10-28,77.5,57.5,44.4,35.8,29.4,22.4,59,36,19,30.01,29.87,7,3,0,0.00
2014-10-29,75.0,56.3,48.6,29.4,25.8,14.5,37,32,11,30.01,29.94,12,3,0,0.00
2014-10-30,80.8,58.9,38.8,27.1,20.9,14.3,43,25,12,30.11,29.99,8,3,0,0.00
2014-10-31,77.4,59.2,45.5,42.9,31.4,23.4,59,36,23,30.13,29.93,11,4,0,0.00
2014-11-1,74.1,59.6,46.2,45.4,40.4,34.8,71,51,36,29.97,29.71,13,4,0,0.00
2014-11-2,61.3,53.4,47.3,51.9,46.8,42.2,99,80,52,29.80,29.69,15,3,0,0.09
2014-11-3,65.5,51.3,39.2,41.7,30.8,23.4,83,48,23,29.88,29.75,17,5,0,0.00
2014-11-4,64.6,51.2,37.4,33.0,29.9,27.5,77,46,29,30.09,29.83,8,4,0,0.00
2014-11-5,67.5,47.9,30.0,30.3,25.9,18.6,89,48,17,30.18,30.01,10,3,0,0.00
2014-11-6,73.9,50.1,32.7,30.4,23.2,18.4,66,38,16,30.29,30.12,6,2,0,0.00
2014-11-7,75.0,53.3,31.1,29.6,24.1,18.3,76,37,14,30.12,29.84,13,4,0,0.00
2014-11-8,74.1,55.1,41.2,33.8,26.8,22.4,60,34,20,30.54,29.91,9,3,6,0.00
2014-11-9,71.8,49.9,32.4,36.7,31.2,26.6,80,52,25,30.37,29.68,9,2,9,0.00
2014-11-10,73.9,55.7,35.8,35.6,28.0,23.9,78,41,17,29.93,29.36,23,7,23,0.00
2014-11-11,75.7,53.6,37.0,31.8,25.1,19.2,58,35,15,30.19,29.55,19,4,19,0.00
2014-11-12,55.6,36.7,22.1,24.8,16.2,9.3,58,44,28,30.48,29.89,14,6,14,0.00
2014-11-13,51.8,33.4,19.0,23.7,15.8,7.7,62,49,32,30.56,30.01,10,4,11,0.00
2014-11-14,61.7,40.8,28.4,34.2,24.4,19.8,72,49,32,30.26,29.75,18,4,18,0.00
2014-11-15,63.5,50.2,34.7,34.9,25.4,15.1,87,43,16,30.09,29.64,23,6,23,0.00
2014-11-16,50.9,37.2,22.6,34.0,19.4,8.4,77,49,29,30.51,29.74,31,11,33,0.00
2014-11-17,50.9,31.8,16.7,10.9,6.3,3.2,56,37,16,30.62,30.11,14,4,14,0.00
2014-11-18,59.4,36.4,17.8,17.2,11.6,5.7,60,38,17,30.64,30.09,12,4,12,0.00
2014-11-19,62.6,41.5,22.5,20.1,12.2,6.3,61,33,13,30.54,29.93,8,2,9,0.57
2014-11-20,64.8,42.1,25.2,18.3,10.3,5.2,51,30,12,30.34,29.78,8,2,8,0.00
2014-11-21,56.3,38.2,24.8,20.5,13.2,7.0,53,36,21,30.37,29.82,7,2,7,0.00
2014-11-22,62.6,40.0,20.5,22.8,15.3,12.0,72,39,18,30.34,29.69,11,2,11,0.00
2014-11-23,45.9,39.8,31.3,25.9,14.1,3.6,58,36,20,30.19,29.73,37,12,37,0.01
2014-11-24,43.9,32.5,19.4,17.8,8.5,3.0,56,38,20,30.54,30.06,30,8,32,0.00
2014-11-25,53.1,33.9,15.4,13.5,6.5,0.3,68,36,13,30.74,30.14,13,3,13,0.00
2014-11-26,64.8,43.7,24.3,25.2,15.7,5.7,48,33,19,30.63,30.07,21,4,30,0.01
2014-11-27,65.7,44.1,26.8,29.5,20.8,16.3,68,43,20,30.65,30.10,9,2,9,0.00
2014-11-28,65.7,42.8,24.8,25.5,18.2,14.0,65,40,18,30.52,29.84,11,2,11,0.00
2014-11-29,65.7,42.8,27.0,22.1,15.8,9.3,61,36,16,30.25,29.67,9,2,9,0.25
2014-11-30,64.8,42.9,27.1,20.5,15.1,10.8,52,33,17,30.31,29.80,6,1,9,0.00
2014-12-1,63.0,40.1,22.5,21.7,15.8,9.9,60,39,20,30.53,29.35,8,1,8,0.00
2014-12-2,53.6,38.8,24.8,21.4,17.7,13.8,65,44,28,30.42,29.99,5,0,5,0.00
2014-12-3,67.5,47.2,29.8,50.0,29.7,16.3,100,55,22,30.29,29.84,8,1,8,0.05
2014-12-4,49.6,44.4,38.8,47.7,43.9,38.8,100,98,87,30.15,29.93,9,1,9,0.40
2014-12-5,146.8,46.0,37.8,44.8,39.9,36.7,100,82,47,30.42,30.09,8,2,79,0.01
2014-12-6,61.0,47.8,36.7,44.4,39.1,36.0,100,74,43,30.45,30.18,6,1,7,0.00
2014-12-7,62.8,48.4,36.3,45.1,39.1,32.9,99,74,38,30.47,30.09,12,2,136,0.01
2014-12-8,60.1,42.7,30.4,36.9,33.2,29.8,99,74,36,30.57,30.17,8,1,13,0.00
2014-12-9,63.9,42.8,31.8,32.9,30.4,27.3,92,66,29,30.95,30.01,9,1,9,0.00
2014-12-10,66.4,44.8,31.3,32.4,30.0,27.0,94,61,25,30.36,29.88,8,1,8,0.00
2014-12-11,65.5,44.0,28.6,32.2,30.5,27.3,99,64,28,30.40,29.91,6,1,6,0.00
2014-12-12,59.2,43.1,29.8,36.7,32.8,28.6,98,70,41,30.41,30.01,7,1,7,0.00
2014-12-13,63.0,45.7,34.0,39.7,34.6,31.5,99,70,38,30.23,29.65,15,3,15,0.18
2014-12-14,47.5,37.4,26.1,34.7,27.5,22.3,99,70,39,30.28,29.84,21,5,21,0.01
2014-12-15,106.9,35.6,21.6,25.2,22.3,19.6,96,63,31,30.42,29.61,10,2,10,0.00
2014-12-16,46.9,37.7,30.0,27.0,25.0,22.8,77,61,43,30.39,30.09,7,2,7,0.00
2014-12-17,45.3,36.6,30.6,39.7,33.7,25.3,99,90,74,30.25,29.94,6,1,6,0.18
2014-12-18,50.2,35.8,25.3,35.1,29.5,25.2,99,80,48,30.36,30.02,8,1,8,0.00
2014-12-19,48.4,36.2,25.9,28.2,26.0,23.4,91,68,41,30.41,30.13,16,4,16,0.00
2014-12-20,49.5,34.1,22.3,28.8,25.8,20.8,99,74,43,30.43,30.02,7,1,7,0.00
2014-12-21,56.8,39.3,28.2,31.8,29.3,25.9,96,70,38,30.27,29.77,8,1,8,0.00
2014-12-22,63.3,42.5,28.8,41.4,31.6,24.6,99,70,30,30.07,29.47,22,5,22,0.03
2014-12-23,45.1,36.8,27.7,31.3,16.3,7.5,90,46,23,30.37,29.92,16,6,16,0.00
2014-12-24,48.6,30.5,16.0,14.5,12.2,10.6,82,49,22,30.53,29.97,12,2,12,0.00
2014-12-25,55.6,38.1,22.8,31.5,18.4,12.0,81,48,22,30.04,29.46,20,3,23,0.00
2014-12-26,39.6,31.2,19.9,32.5,18.8,7.9,99,64,28,30.35,29.79,19,4,19,0.00
2014-12-27,44.2,27.3,13.5,17.1,11.9,7.2,93,56,27,30.56,30.19,11,3,11,0.00
2014-12-28,45.9,26.5,12.4,14.0,10.3,7.5,82,53,22,30.60,30.05,10,2,10,0.00
2014-12-29,52.0,28.7,10.9,18.0,10.1,-0.8,89,51,14,30.44,29.84,14,2,14,0.00
2014-12-30,34.2,23.1,14.2,16.0,10.9,4.6,86,61,40,30.61,30.22,18,4,18,0.00
2014-12-31,32.4,20.8,15.1,13.8,9.1,5.0,83,61,41,30.60,30.24,8,2,8,0.00
2015-1-1,39.9,24.7,16.5,22.3,18.1,12.7,91,77,47,30.35,30.02,8,2,10,0.00
2015-1-2,45.0,30.3,16.0,27.9,18.0,12.6,93,62,41,30.37,29.85,11,4,11,0.00